THORAD DELTA 1 DEB, 8401

Orbit data source: Space-Track

THORAD DELTA 1 DEB, 8401 is space debris in SSO originally from a launch on Fri, 15 Nov 1974 UTC launched from the Air Force Western Test Range (AFWTR). Debris objects in space refer to the collection of defunct objects orbiting the Earth. Examples of debris include non-operational satellites, rocket bodies, and fragments generated from explosions, collisions, or faulty payload assembly.

Loading next visibility...
Identifier
8401, 1974-089CD
Orbit
SSO
Country
Flag of USUS
Related business
Manufacturer
Unknown
Mission
Spacecraft
Bus & Motor
Unknown
Mass
Unknown
Launch date (UTC)
1974-11-15 (51 years ago)
Launch vehicle
Unknown
Launch site
Air Force Western Test Range (AFWTR)
Object type
Payload
Rocket body
Debris
Shape & HBR
Unknown shape, 0.1 m
Radar Cross Section
Small (<0.1 m²)

Expand to show TLE details & history
Last TLE update: 3 days ago

TLE from 3 days ago
0 THORAD DELTA 1 DEB
1 08401U 74089CD  25286.68921566  .00000007  00000-0  26929-3 0  9995
2 08401 101.4351   0.8174 0068245 192.1916 321.8067 12.67152093354065
Epoch: 2025-10-13T16:32Z
TLE epoch observation values (Epoch: 2025-10-13T16:32:28.233Z)
Latitude
25.95628°
Longitude
-84.16611°
Altitude
1,354.896 km
Speed
7.202 km/s
True Right ascension
12h 25m 45s
True Declination
25° 49' 54"
Sunlit
Object was in daylight at epoch
Visualization orbit readout
Latitude
Unknown
Longitude
Unknown
Altitude
Unknown
Speed
Unknown
Apparent Right ascension
Unknown
Apparent Declination
Unknown
Sunlit
N/A
Visualization observer readout
Local Sidereal Time
03:42:32
Azimuth
Unknown
Elevation
Unknown
Doppler factor
Unknown
Orbital elements
Apogee altitude
1,444.09 km
Perigee altitude
1,338.048 km
Semi-major axis
7,769.206 km
Eccentricity
0.00682
Inclination
101.4351°
RAAN
0.8174°
Arg. of periapsis
192.1916°
True anomaly
321.3199°
Mean anomaly
321.8067°
Eccentric anomaly
321.56363°
Mean motion
3.16941 °/min
Orbital period
113.59 mins
BSTAR
0.00026929
Loading maneuver chart data...
Computing Atmospheric mass density...

Documentation

Showing up to 5 results
|